Regional Weather Roundup
Issued by NWS Mt. Holly, NJ

Home | Current Version | Previous Version | Text Only | Print | Product List | Glossary On
Versions: 1 2 3 4 5 6 7 8 9 10 11 12 13 14 15 16 17 18 19 20 21 22 23 24 25 26 27 28 29 30 31 32 33 34 35 36 37 38 39 40 41 42 43 44 45 46 47 48 49 50
000
ASUS41 KPHI 020110
RWRPHI

REGIONAL WEATHER ROUNDUP
NATIONAL WEATHER SERVICE MOUNT HOLLY NJ
900 PM EDT FRI AUG 01 2014

NOTE:  "FAIR" INDICATES FEW OR NO CLOUDS BELOW 12,000 FEET WITH NO
SIGNIFICANT WEATHER AND/OR OBSTRUCTIONS TO VISIBILITY.

 * = STATION DOES NOT REPORT PRECIPITATION (E.G. RAIN, SNOW, ETC.)
        OR FOG.

NJZ015>026-020200-
SOUTHERN NEW JERSEY

CITY           SKY/WX    TMP DP  RH WIND       PRES   REMARKS
POMONA         CLOUDY    70  68  93 CALM      30.18S
RIO GRANDE*    CLOUDY    72  66  83 E5        30.19R
MILLVILLE      LGT RAIN  71  68  90 CALM      30.18S
WRIGHTSTOWN    CLOUDY    70  70 100 SE3       30.17R
MOUNT HOLLY    CLOUDY    70  68  93 CALM      30.18S FOG
TRENTON        MOCLDY    69  67  93 NE3       30.19R

$$
NJZ001>014-020200-
NORTHERN NEW JERSEY

CITY           SKY/WX    TMP DP  RH WIND       PRES   REMARKS
SUSSEX         CLOUDY    71  63  75 CALM      30.21R
ANDOVER*         N/A     68  64  87 CALM      30.21S
MORRISTOWN     CLEAR     70  68  94 CALM      30.21R
NEWARK         CLOUDY    75  67  76 S5        30.20R
TETERBORO      CLOUDY    77  67  71 VRB3      30.19R
CALDWELL       CLOUDY    70  66  87 CALM      30.21R
SOMERVILLE     CLOUDY    70  67  90 CALM      30.18S
ALLAIRE*       CLOUDY    72  64  78 CALM      30.20R
TOMS RIVER*    CLOUDY    72  70  94 CALM      30.20R

$$
PAZ043-044-047-054-055-060>062-066>071-020200-
EASTERN PENNSYLVANIA

CITY           SKY/WX    TMP DP  RH WIND       PRES   REMARKS
PHILADELPHIA   MOCLDY    72  68  87 SE5       30.18F
NORTH PHILA    MOCLDY    71  66  84 E5        30.19F
BLUE BELL      MOCLDY    70  68  94 CALM      30.18S
DOYLESTOWN     CLOUDY    67  67 100 CALM      30.19S
QUAKERTOWN*    CLOUDY    68  66  94 CALM      30.20F
POTTSTOWN      CLOUDY    69  66  90 CALM      30.20S
LANCASTER      CLOUDY    67  65  93 E5        30.18S FOG
COATESVILLE    CLOUDY    66  66 100 CALM      30.20S FOG
READING        CLOUDY    69  66  90 CALM      30.17S
ALLENTOWN      CLOUDY    69  64  84 E6        30.18F
MOUNT POCONO   CLOUDY    64  32  30 E3        30.24S
HAZLETON       CLOUDY    64  61  88 SE3       30.24S
WILKES BARRE   CLOUDY    71  60  68 CALM      30.19S

$$
DEZALL-MDZ008-012-015-019-020-020200-
DELAWARE AND EASTERN MARYLAND

CITY           SKY/WX    TMP DP  RH WIND       PRES   REMARKS
WILMINGTON     CLOUDY    72  69  90 E6        30.18S
DOVER          LGT RAIN  70  67  92 E3        30.15F
GEORGETOWN     LGT RAIN  71  68  90 E12       30.17S
EASTON         CLOUDY    73  73 100 CALM      30.20R
PATUXENT       LGT RAIN  69  63  81 NE6       30.15S
OCEAN CITY     CLOUDY    73  71  93 E5        30.16R
WALLOPS ISLAND LGT RAIN  74  70  87 SE10      30.16S
CAMBRIDGE      CLOUDY    72  68  88 E5        30.16S
SALISBURY      LGT RAIN  74  68  81 NE3       30.16S

$$
PAZ001-021-NYZ056-072-MDZ011-DCZ001-020200-
OTHER NEARBY LOCATIONS

CITY           SKY/WX    TMP DP  RH WIND       PRES   REMARKS
HARRISBURG     CLOUDY    73  66  78 E9        30.15S
STATE COLLEGE  PTCLDY    72  63  73 CALM      30.17R
WILLIAMSPORT   MOCLDY    72  63  73 E9        30.15R
BINGHAMTON     PTCLDY    71  61  70 S9        30.19R
NEW YORK CITY  CLOUDY    75  64  68 VRB3      30.23R
BALTIMORE      CLOUDY    74  62  66 E3        30.16R
WASHINGTON DC  CLOUDY    77  64  64 SE5       30.16S

$$



USA.gov is the U.S. government's official web portal to all federal, state and local government web resources and services.